Regional Weather Roundup
Issued by NWS

Home | Current Version | Previous Version | Graphics & Text | Print | Product List | Glossary On
Versions: 1 2 3 4 5 6 7 8 9 10 11 12 13 14 15 16 17 18 19 20 21 22 23 24 25 26 27 28 29 30 31 32 33 34 35 36 37 38 39 40 41 42 43 44 45 46 47 48 49 50
000
ASUS44 KMEG 211310
RWRTN
TENNESSEE HOURLY STATE WEATHER ROUNDUP
NATIONAL WEATHER SERVICE MEMPHIS TN
700 AM CST TUE FEB 21 2017

TNZ002-004-019-021-049-052-054-088>092-211400-
WEST TENNESSEE

CITY           SKY/WX    TMP DP  RH WIND       PRES   REMARKS
MEMPHIS INTL   CLOUDY    59  57  93 SE9       29.81R
NWS MEMPHIS      N/A     58 N/A N/A MISG        N/A
JACKSON        CLOUDY    57  56  96 E3        29.89F
UNION CITY     PTCLDY    59  48  67 SE7       29.92R
PARIS          MOCLDY    57  48  72 SE6       29.94S
HUNTINGDON     MOCLDY    59  52  77 E5        29.93S
$$

TNZ008-025-027-028-033-062-065-066-211400-
NORTH MIDDLE TENNESSEE

CITY           SKY/WX    TMP DP  RH WIND       PRES   REMARKS
NASHVILLE      CLOUDY    58  46  64 SE7       30.00R
PORTLAND       CLEAR     59  46  63 SE7       30.00S
CLARKSVILLE    PTCLDY    57  47  69 SE5       29.98R
SMYRNA         MOCLDY    50  47  89 CALM      30.01S
COOKEVILLE     CLEAR     59  45  58 SE7G13    30.03S
GALLATIN       CLEAR     54  46  76 E3        30.03S
CROSSVILLE     MOCLDY    53  41  63 CALM      30.08S
$$

TNZ061-075-076-078-094-096-097-211400-
SOUTH MIDDLE TENNESSEE

CITY           SKY/WX    TMP DP  RH WIND       PRES   REMARKS
FAYETTEVILLE   CLEAR     59  52  77 SE7       30.00S
TULLAHOMA      CLEAR     59  46  63 SE7       30.03R
MCMINNVILLE    CLEAR     61  46  59 CALM      30.03S
COLUMBIA       PTCLDY    61  57  88 SE6       29.97R
SHELBYVILLE    CLEAR     61  52  72 SE8       30.01S
$$

TNZ017-018-042-046-047-211400-
NORTHEAST TENNESSEE

CITY           SKY/WX    TMP DP  RH WIND       PRES   REMARKS
TRI CITIES     CLOUDY    39  36  89 CALM      30.15S
ELIZABETHTON   CLOUDY    57  41  54 E7        30.16R
$$

TNZ012-013-036-069-073-074-211400-
CENTRAL EAST TENNESSEE

CITY           SKY/WX    TMP DP  RH WIND       PRES   REMARKS
KNOXVILLE      MOCLDY    46  42  86 N3        30.08F
OAK RIDGE      PTCLDY    45  42  89 CALM      30.11S
GATLINBURG     CLEAR     39  39 100 CALM      30.09F
MORRISTOWN     CLEAR     48  41  76 CALM      30.10F
JACKSBORO      CLEAR     43  43 100 CALM      30.13S
$$

TNZ083-085-099-211400-
SOUTHEAST TENNESSEE

CITY           SKY/WX    TMP DP  RH WIND       PRES   REMARKS
CHATTANOOGA    MOCLDY    47  45  93 CALM      30.08S
$$

SKY/WX REPORTED AS FAIR MEANS FEW OR NO CLOUDS BELOW
12 THOUSAND FEET.




USA.gov is the U.S. government's official web portal to all federal, state and local government web resources and services.